Location: Northcutt
(34.7304°N, 84.4305°W)
Time: 09:05:29
(UTC+00:00)

A-11 Canister half - Pass Details

Date: 03 October 2022
Orbit: 1524 x 1685 km, 47.3° (Epoch: 30 November)

Event Time Altitude Azimuth Distance (km) Brightness Sun altitude
Rises 23:14:27 0° 283° (WNW) 4,673 13.3 0.1°
Reaches altitude 10° 23:17:48 10° 291° (WNW) 3,698 12.3 -0.6°
Maximum altitude 23:26:21 38° 358° (N) 2,203 9.9 -2.4°
Drops below altitude 10° 23:35:05 10° 64° (ENE) 3,785 10.5 -4.2°
Enters shadow 23:37:28 - 70° (ENE) 4,470 10.8 -4.7°
Sets 23:38:34 0° 72° (ENE) 4,794 - -4.9°
